Date String (YYYY-MM-DD hh:mm:ss) UTC,Instrument flags,Ambient pressure (hPa),Sample flow (lpm),Bypass flow (lpm),Sample temperature (°C),Ambient temperature (°C),ASC tube jacket temperature (°C),LED temperature (°C),Box temperature (°C),Sample RH (%),Span deviation,Mass concentration (μg/m³),Mass concentration (μg/m³),Mass concentration (μg/m³)
DateTimeUTC,F1_M11,P_M11,Q1_M11,Q2_M11,T1_M11,T2_M11,T3_M11,T4_M11,T5_M11,U1_M11,ZSPAN_M11,X0_M11,X2_M11,X1_M11
2022-05-02 13:00:00,,0822.4,5.01,0.00,25.4,24.5,00.0,34.4,27.3,19.8,0000.0,0004.78,0003.73,0003.57
2022-05-02 13:01:00,,0822.5,4.99,0.00,25.4,24.5,00.0,34.4,27.2,19.8,0000.0,0004.68,0003.68,0003.53
2022-05-02 13:02:00,,0822.5,5.00,0.00,25.4,24.6,00.0,34.4,27.2,19.8,0000.0,0004.48,0003.61,0003.48
2022-05-02 13:03:00,,0822.5,4.99,0.00,25.4,24.6,00.0,34.4,27.3,19.8,0000.0,0004.31,0003.54,0003.43
2022-05-02 13:04:00,,0822.5,4.99,0.00,25.4,24.6,00.0,34.4,27.3,19.8,0000.0,0004.20,0003.48,0003.39
2022-05-02 13:05:00,,0822.5,5.01,0.00,25.4,24.6,00.0,34.4,27.3,19.8,0000.0,0004.14,0003.43,0003.33
2022-05-02 13:06:00,,0822.5,4.98,0.00,25.4,24.5,00.0,34.4,27.2,19.8,0000.0,0003.98,0003.38,0003.29
2022-05-02 13:07:00,,0822.5,5.00,0.00,25.4,24.5,00.0,34.4,27.2,19.8,0000.0,0003.95,0003.35,0003.26
2022-05-02 13:08:00,,0822.5,5.00,0.00,25.4,24.5,00.0,34.4,27.2,19.8,0000.0,0003.92,0003.32,0003.22
2022-05-02 13:09:00,,0822.5,5.00,0.00,25.4,24.5,00.0,34.4,27.2,19.8,0000.0,0003.79,0003.26,0003.16
2022-05-02 13:10:00,,0822.6,5.00,0.00,25.4,24.5,00.0,34.4,27.2,19.8,0000.0,0003.69,0003.20,0003.09
2022-05-02 13:11:00,,0822.6,4.99,0.00,25.4,24.5,00.0,34.4,27.2,19.8,0000.0,0003.57,0003.13,0002.96
2022-05-02 13:12:00,,0822.6,5.01,0.00,25.4,24.5,00.0,34.4,27.2,19.8,0000.0,0003.43,0003.03,0002.83
2022-05-02 13:13:00,,0822.6,4.99,0.00,25.4,24.5,00.0,34.4,27.2,19.9,0000.0,0003.47,0002.99,0002.76
2022-05-02 13:14:00,,0822.6,4.99,0.00,25.4,24.5,00.0,34.4,27.2,19.8,0000.0,0003.37,0002.90,0002.67
2022-05-02 13:15:00,,0822.6,5.02,0.00,25.4,24.5,00.0,34.4,27.2,19.8,0000.0,0003.19,0002.77,0002.56
2022-05-02 13:16:00,,0822.6,4.99,0.00,25.4,24.4,00.0,34.4,27.2,19.8,0000.0,0003.02,0002.64,0002.45
2022-05-02 13:17:00,,0822.6,5.00,0.00,25.3,24.4,00.0,34.4,27.2,19.8,0000.0,0002.88,0002.51,0002.34
2022-05-02 13:18:00,,0822.7,5.00,0.00,25.3,24.4,00.0,34.4,27.1,19.8,0000.0,0002.74,0002.40,0002.24
2022-05-02 13:19:00,,0822.7,5.01,0.00,25.3,24.4,00.0,34.3,27.1,19.7,0000.0,0002.56,0002.27,0002.13
2022-05-02 13:20:00,,0822.7,4.98,0.00,25.3,24.4,00.0,34.3,27.1,19.7,0000.0,0002.48,0002.18,0002.05
2022-05-02 13:21:00,,0822.7,5.02,0.00,25.3,24.3,00.0,34.3,27.1,19.7,0000.0,0002.39,0002.10,0001.97
2022-05-02 13:22:00,,0822.7,5.00,0.00,25.3,24.3,00.0,34.3,27.1,19.7,0000.0,0002.26,0002.00,0001.90
2022-05-02 13:23:00,,0822.7,4.99,0.00,25.3,24.3,00.0,34.3,27.1,19.7,0000.0,0002.14,0001.91,0001.83
2022-05-02 13:24:00,,0822.8,5.00,0.00,25.3,24.3,00.0,34.3,27.1,19.7,0000.0,0001.94,0001.78,0001.74
2022-05-02 13:25:00,,0822.7,4.99,0.00,25.2,24.3,00.0,34.3,27.0,19.8,0000.0,0001.84,0001.68,0001.65
2022-05-02 13:26:00,,0822.8,5.00,0.00,25.2,24.3,00.0,34.3,27.0,19.8,0000.0,0001.76,0001.62,0001.59
2022-05-02 13:27:00,,0822.9,5.01,0.00,25.2,24.3,00.0,34.3,27.0,19.8,0000.0,0001.69,0001.56,0001.54
2022-05-02 13:28:00,,0823.0,5.00,0.00,25.2,24.3,00.0,34.3,27.0,19.8,0000.0,0001.64,0001.52,0001.50
2022-05-02 13:29:00,,0823.0,5.01,0.00,25.2,24.3,00.0,34.2,27.0,19.9,0000.0,0001.59,0001.48,0001.47
2022-05-02 13:30:00,,0823.0,4.99,0.00,25.2,24.3,00.0,34.2,27.0,19.8,0000.0,0001.56,0001.44,0001.43
2022-05-02 13:31:00,,0822.9,5.01,0.00,25.2,24.3,00.0,34.2,27.0,19.8,0000.0,0001.52,0001.40,0001.39
2022-05-02 13:32:00,,0822.9,4.99,0.00,25.2,24.3,00.0,34.2,27.0,19.8,0000.0,0001.49,0001.37,0001.35
2022-05-02 13:33:00,,0822.9,5.02,0.00,25.2,24.3,00.0,34.2,27.0,19.9,0000.0,0001.46,0001.34,0001.33
2022-05-02 13:34:00,,0823.0,4.99,0.00,25.2,24.3,00.0,34.2,27.0,19.8,0000.0,0001.45,0001.32,0001.30
2022-05-02 13:35:00,,0823.1,4.99,0.00,25.2,24.3,00.0,34.2,27.0,19.8,0000.0,0001.42,0001.29,0001.27
2022-05-02 13:36:00,,0823.1,5.01,0.00,25.2,24.3,00.0,34.2,27.0,19.8,0000.0,0001.42,0001.28,0001.25
2022-05-02 13:37:00,,0823.1,5.01,0.00,25.2,24.3,00.0,34.2,27.0,19.8,0000.0,0001.64,0001.26,0001.23
2022-05-02 13:38:00,,0823.1,4.99,0.00,25.2,24.3,00.0,34.2,27.0,19.8,0000.0,0001.70,0001.24,0001.21
2022-05-02 13:39:00,,0823.1,5.01,0.00,25.2,24.3,00.0,34.2,27.0,19.8,0000.0,0001.68,0001.22,0001.19
2022-05-02 13:40:00,,0823.1,5.01,0.00,25.2,24.3,00.0,34.2,27.0,19.8,0000.0,0001.67,0001.21,0001.18
2022-05-02 13:41:00,,0823.1,4.99,0.00,25.2,24.3,00.0,34.2,27.0,19.8,0000.0,0001.65,0001.19,0001.16
2022-05-02 13:42:00,,0823.1,5.02,0.00,25.2,24.3,00.0,34.2,27.0,19.8,0000.0,0001.63,0001.17,0001.15
2022-05-02 13:43:00,,0823.2,4.99,0.00,25.2,24.3,00.0,34.2,27.0,19.8,0000.0,0001.59,0001.15,0001.13
2022-05-02 13:44:00,,0823.2,4.99,0.00,25.2,24.3,00.0,34.2,27.0,19.9,0000.0,0001.56,0001.12,0001.11
2022-05-02 13:45:00,,0823.2,5.01,0.00,25.2,24.3,00.0,34.2,27.0,19.8,0000.0,0001.57,0001.12,0001.10
2022-05-02 13:46:00,,0823.2,5.01,0.00,25.1,24.2,00.0,34.2,27.0,19.8,0000.0,0001.57,0001.11,0001.09
2022-05-02 13:47:00,,0823.3,5.00,0.00,25.1,24.2,00.0,34.1,27.0,19.9,0000.0,0001.58,0001.12,0001.09
2022-05-02 13:48:00,,0823.2,5.02,0.00,25.1,24.2,00.0,34.1,26.9,19.9,0000.0,0001.44,0001.13,0001.09
2022-05-02 13:49:00,,0823.3,4.99,0.00,25.1,24.2,00.0,34.1,26.9,19.9,0000.0,0001.31,0001.14,0001.09
2022-05-02 13:50:00,,0823.3,4.99,0.00,25.1,24.2,00.0,34.1,26.9,19.9,0000.0,0001.33,0001.14,0001.09
2022-05-02 13:51:00,,0823.4,5.01,0.00,25.1,24.1,00.0,34.1,26.9,19.9,0000.0,0001.35,0001.15,0001.10
2022-05-02 13:52:00,,0823.3,4.99,0.00,25.1,24.1,00.0,34.1,26.8,19.9,0000.0,0001.34,0001.15,0001.09
2022-05-02 13:53:00,,0823.4,5.00,0.00,25.0,24.1,00.0,34.1,26.8,19.9,0000.0,0001.34,0001.14,0001.09
2022-05-02 13:54:00,,0823.4,5.01,0.00,25.0,24.1,00.0,34.1,26.7,19.9,0000.0,0001.34,0001.14,0001.09
2022-05-02 13:55:00,,0823.3,4.99,0.00,25.0,24.1,00.0,34.1,26.7,20.0,0000.0,0001.34,0001.14,0001.09
2022-05-02 13:56:00,,0823.3,5.00,0.00,25.0,24.0,00.0,34.1,26.7,20.0,0000.0,0001.30,0001.13,0001.08
2022-05-02 13:57:00,,0823.3,5.00,0.00,25.0,24.0,00.0,34.0,26.7,20.0,0000.0,0001.28,0001.11,0001.07
2022-05-02 13:58:00,,0823.3,5.00,0.00,24.9,24.0,00.0,34.0,26.7,20.0,0000.0,0001.26,0001.09,0001.05
2022-05-02 13:59:00,,0823.4,5.01,0.00,24.9,24.0,00.0,34.0,26.7,20.0,0000.0,0001.20,0001.05,0001.03
